�������l�o���
Date,Time,MP-1(��Sv/h),MP-2(��Sv/h),MP-3(��Sv/h),MP-4(��Sv/h),MP-5(��Sv/h),MP-6(��Sv/h),MP-7(��Sv/h),MP-8(��Sv/h),����,����(m/s),���J
2017/08/21,00:00,0.914,1.425,0.945,1.707,1.165,0.505,0.923,0.857,��,0.6,��
2017/08/21,00:10,0.915,1.424,0.946,1.708,1.165,0.504,0.922,0.854,���k��,0.9,��
2017/08/21,00:20,0.915,1.426,0.946,1.710,1.168,0.505,0.922,0.854,-,CALM,��
2017/08/21,00:30,0.913,1.425,0.945,1.709,1.165,0.506,0.922,0.855,-,CALM,��
2017/08/21,00:40,0.915,1.422,0.947,1.706,1.166,0.504,0.923,0.855,���k��,0.9,�L
2017/08/21,00:50,0.914,1.425,0.945,1.707,1.165,0.505,0.922,0.856,��,0.9,��
2017/08/21,01:00,0.915,1.424,0.947,1.705,1.168,0.506,0.924,0.855,-,CALM,��
2017/08/21,01:10,0.915,1.426,0.947,1.710,1.165,0.507,0.923,0.856,-,CALM,��
2017/08/21,01:20,0.918,1.427,0.948,1.709,1.167,0.505,0.922,0.857,�k,0.9,��
2017/08/21,01:30,0.916,1.426,0.947,1.710,1.168,0.504,0.923,0.854,�k,0.6,��
2017/08/21,01:40,0.915,1.425,0.945,1.708,1.167,0.504,0.923,0.856,�k��,0.6,��
2017/08/21,01:50,0.916,1.424,0.949,1.709,1.165,0.505,0.923,0.856,���k��,0.6,��
2017/08/21,02:00,0.915,1.425,0.948,1.708,1.165,0.506,0.923,0.855,��,0.8,��
2017/08/21,02:10,0.916,1.425,0.948,1.712,1.163,0.505,0.922,0.856,��,1.1,��
2017/08/21,02:20,0.916,1.427,0.948,1.710,1.168,0.506,0.922,0.855,���k��,0.6,��
2017/08/21,02:30,0.918,1.428,0.946,1.711,1.167,0.507,0.925,0.856,-,CALM,��
2017/08/21,02:40,0.915,1.427,0.949,1.709,1.167,0.504,0.923,0.856,�쓌,0.6,��
2017/08/21,02:50,0.917,1.426,0.948,1.711,1.167,0.506,0.923,0.856,�쓌,0.9,��
2017/08/21,03:00,0.914,1.426,0.949,1.710,1.167,0.508,0.923,0.856,�쓌,0.8,��
2017/08/21,03:10,0.915,1.428,0.948,1.712,1.167,0.503,0.924,0.857,-,CALM,��
2017/08/21,03:20,0.915,1.428,0.947,1.709,1.166,0.506,0.922,0.855,�k��,0.6,��
2017/08/21,03:30,0.915,1.427,0.948,1.710,1.168,0.507,0.924,0.858,�k�k��,0.8,��
2017/08/21,03:40,0.916,1.428,0.947,1.711,1.167,0.505,0.923,0.857,�k��,0.9,��
2017/08/21,03:50,0.918,1.427,0.948,1.710,1.169,0.507,0.924,0.856,���k��,0.6,��
2017/08/21,04:00,0.916,1.431,0.947,1.712,1.169,0.506,0.923,0.858,-,CALM,��
2017/08/21,04:10,0.915,1.427,0.951,1.711,1.167,0.506,0.924,0.857,-,CALM,��
2017/08/21,04:20,0.915,1.427,0.949,1.713,1.165,0.506,0.924,0.857,��쐼,0.9,��
2017/08/21,04:30,0.918,1.427,0.949,1.715,1.168,0.506,0.923,0.857,��쐼,1.5,��
2017/08/21,04:40,0.916,1.428,0.949,1.715,1.167,0.506,0.924,0.857,��쐼,1.4,��
2017/08/21,04:50,0.916,1.428,0.950,1.714,1.168,0.506,0.925,0.855,��쐼,1.9,��
2017/08/21,05:00,0.917,1.432,0.948,1.711,1.169,0.507,0.922,0.858,��쐼,2.0,��
2017/08/21,05:10,0.916,1.427,0.950,1.716,1.168,0.504,0.923,0.856,��쐼,1.9,��
2017/08/21,05:20,0.917,1.431,0.950,1.713,1.169,0.506,0.922,0.855,��쐼,1.9,��
2017/08/21,05:30,0.918,1.433,0.950,1.714,1.170,0.505,0.923,0.855,��쐼,2.0,��
2017/08/21,05:40,0.915,1.430,0.949,1.713,1.168,0.505,0.923,0.854,��쐼,1.5,��
2017/08/21,05:50,0.917,1.429,0.950,1.713,1.166,0.505,0.926,0.857,��쐼,1.4,��
2017/08/21,06:00,0.918,1.430,0.951,1.714,1.167,0.508,0.923,0.857,��,1.7,��
2017/08/21,06:10,0.917,1.431,0.947,1.715,1.170,0.508,0.925,0.856,��쓌,1.4,��
2017/08/21,06:20,0.917,1.431,0.951,1.713,1.168,0.506,0.924,0.857,�쓌,0.6,��
2017/08/21,06:30,0.916,1.428,0.951,1.715,1.169,0.506,0.923,0.858,-,CALM,��
2017/08/21,06:40,0.917,1.430,0.949,1.713,1.170,0.507,0.922,0.857,��쓌,1.5,��
2017/08/21,06:50,0.916,1.431,0.948,1.714,1.171,0.507,0.924,0.858,�쓌,0.9,��
2017/08/21,07:00,0.918,1.432,0.949,1.714,1.169,0.506,0.923,0.856,-,CALM,��
2017/08/21,07:10,0.916,1.431,0.949,1.715,1.169,0.506,0.924,0.856,��쓌,1.2,��
2017/08/21,07:20,0.916,1.429,0.948,1.717,1.170,0.505,0.924,0.854,�쓌,1.4,��
2017/08/21,07:30,0.915,1.430,0.950,1.715,1.172,0.505,0.924,0.857,�쓌,1.4,��
2017/08/21,07:40,0.914,1.432,0.947,1.715,1.170,0.506,0.925,0.855,�쓌,1.4,��
2017/08/21,07:50,0.915,1.430,0.948,1.716,1.168,0.505,0.924,0.855,��,1.2,��
2017/08/21,08:00,0.916,1.430,0.949,1.716,1.169,0.505,0.921,0.856,���쓌,1.7,��
2017/08/21,08:10,0.918,1.432,0.951,1.718,1.171,0.506,0.923,0.856,�쓌,1.7,��
2017/08/21,08:20,0.916,1.431,0.950,1.717,1.169,0.505,0.922,0.854,��,1.7,��
2017/08/21,08:30,0.916,1.433,0.952,1.715,1.170,0.505,0.922,0.855,��,1.5,��
2017/08/21,08:40,0.919,1.433,0.950,1.715,1.169,0.505,0.923,0.856,��쓌,1.7,��
2017/08/21,08:50,0.919,1.429,0.949,1.716,1.172,0.504,0.924,0.856,��,1.4,��
2017/08/21,09:00,0.917,1.431,0.947,1.718,1.170,0.504,0.923,0.855,��쐼,1.2,��
2017/08/21,09:10,0.915,1.433,0.951,1.718,1.170,0.505,0.923,0.855,��,2.0,��
2017/08/21,09:20,0.916,1.430,0.950,1.715,1.172,0.507,0.923,0.853,��,1.5,��
2017/08/21,09:30,0.917,1.432,0.951,1.717,1.173,0.505,0.925,0.856,��,2.0,��
2017/08/21,09:40,0.915,1.430,0.950,1.716,1.167,0.506,0.923,0.854,��쓌,1.7,��
2017/08/21,09:50,0.919,1.431,0.952,1.718,1.172,0.505,0.923,0.855,��,1.5,��
2017/08/21,10:00,0.917,1.430,0.950,1.718,1.170,0.506,0.924,0.854,��쓌,2.3,��
2017/08/21,10:10,0.917,1.434,0.949,1.718,1.171,0.505,0.923,0.855,��,2.0,��
2017/08/21,10:20,0.919,1.433,0.947,1.717,1.172,0.505,0.924,0.855,��,2.2,��
2017/08/21,10:30,0.918,1.433,0.950,1.721,1.174,0.506,0.923,0.855,��,2.0,��
2017/08/21,10:40,0.918,1.433,0.953,1.721,1.175,0.505,0.925,0.855,��쓌,2.6,��
2017/08/21,10:50,0.919,1.435,0.952,1.718,1.173,0.507,0.925,0.855,��,3.1,��
2017/08/21,11:00,0.919,1.436,0.951,1.721,1.172,0.507,0.926,0.856,��,2.3,��
2017/08/21,11:10,0.919,1.435,0.953,1.720,1.174,0.506,0.926,0.856,��쐼,2.6,��
2017/08/21,11:20,0.918,1.438,0.953,1.722,1.174,0.507,0.926,0.856,��,2.6,��
2017/08/21,11:30,0.919,1.439,0.948,1.720,1.172,0.508,0.925,0.857,��쓌,2.0,��
2017/08/21,11:40,0.919,1.440,0.951,1.726,1.174,0.508,0.925,0.856,��쓌,3.4,��
2017/08/21,11:50,0.920,1.439,0.950,1.720,1.178,0.509,0.928,0.854,��쓌,3.8,��
2017/08/21,12:00,0.918,1.442,0.954,1.720,1.176,0.508,0.927,0.855,�쓌,3.7,��
2017/08/21,12:10,0.922,1.441,0.955,1.720,1.177,0.509,0.925,0.856,�쓌,3.3,��
2017/08/21,12:20,0.921,1.441,0.954,1.719,1.177,0.509,0.927,0.856,���쓌,3.5,��
2017/08/21,12:30,0.923,1.443,0.955,1.721,1.179,0.509,0.928,0.860,�쓌,3.1,��
2017/08/21,12:40,0.922,1.442,0.955,1.722,1.180,0.509,0.929,0.858,���쓌,3.6,��
2017/08/21,12:50,0.923,1.445,0.957,1.723,1.180,0.508,0.929,0.857,�쓌,4.5,��
2017/08/21,13:00,0.923,1.448,0.956,1.724,1.182,0.508,0.927,0.857,�쓌,4.2,��
2017/08/21,13:10,0.923,1.445,0.956,1.723,1.181,0.509,0.929,0.858,���쓌,3.1,��
2017/08/21,13:20,0.925,1.444,0.945,1.724,1.181,0.510,0.930,0.858,�쓌,3.8,��
2017/08/21,13:30,0.924,1.447,0.941,1.723,1.181,0.510,0.930,0.856,���쓌,3.0,��
2017/08/21,13:40,0.923,1.447,0.953,1.725,1.182,0.510,0.929,0.858,�쓌,3.6,��
2017/08/21,13:50,0.923,1.446,0.953,1.725,1.183,0.511,0.927,0.858,�쓌,3.9,��
2017/08/21,14:00,0.926,1.445,0.954,1.724,1.183,0.512,0.927,0.858,�쓌,3.6,��
2017/08/21,14:10,0.923,1.449,0.954,1.727,1.180,0.510,0.930,0.857,��쓌,4.1,��
2017/08/21,14:20,0.924,1.449,0.954,1.728,1.184,0.510,0.929,0.857,��쓌,5.8,��
2017/08/21,14:30,0.925,1.450,0.954,1.728,1.184,0.510,0.928,0.858,��쓌,5.8,��
2017/08/21,14:40,0.924,1.449,0.955,1.730,1.183,0.511,0.932,0.857,��쓌,5.6,��
2017/08/21,14:50,0.924,1.450,0.956,1.729,1.181,0.512,0.929,0.857,��쓌,6.2,��
2017/08/21,15:00,0.925,1.452,0.954,1.733,1.183,0.511,0.929,0.859,��쓌,6.5,��
2017/08/21,15:10,0.923,1.450,0.956,1.729,1.185,0.511,0.928,0.857,��쓌,6.0,��
2017/08/21,15:20,0.925,1.454,0.956,1.732,1.184,0.512,0.927,0.858,��,6.0,��
2017/08/21,15:30,0.927,1.453,0.958,1.733,1.186,0.511,0.929,0.858,��쓌,6.9,��
2017/08/21,15:40,0.927,1.452,0.956,1.733,1.189,0.511,0.930,0.857,��쓌,7.2,��
2017/08/21,15:50,0.930,1.455,0.957,1.730,1.187,0.513,0.931,0.858,��쓌,7.7,��
2017/08/21,16:00,0.929,1.456,0.957,1.730,1.187,0.514,0.930,0.858,��쓌,9.1,��
2017/08/21,16:10,0.930,1.456,0.958,1.731,1.188,0.514,0.930,0.860,��,9.4,��
2017/08/21,16:20,0.931,1.458,0.958,1.734,1.188,0.515,0.929,0.858,��,8.5,��
2017/08/21,16:30,0.927,1.456,0.957,1.733,1.188,0.516,0.930,0.857,��쓌,9.5,��
2017/08/21,16:40,0.927,1.460,0.960,1.731,1.186,0.516,0.931,0.859,��쓌,9.4,��
2017/08/21,16:50,0.930,1.456,0.959,1.733,1.188,0.515,0.932,0.859,��쓌,8.7,��
2017/08/21,17:00,0.930,1.456,0.957,1.733,1.189,0.517,0.929,0.863,��쓌,7.4,��
2017/08/21,17:10,0.930,1.457,0.960,1.736,1.190,0.513,0.931,0.860,��,6.1,��
2017/08/21,17:20,0.929,1.458,0.958,1.734,1.189,0.516,0.932,0.862,��,6.0,��
2017/08/21,17:30,0.931,1.457,0.961,1.731,1.191,0.516,0.932,0.862,��,6.9,��
2017/08/21,17:40,0.929,1.459,0.960,1.734,1.190,0.514,0.932,0.863,��쓌,5.9,��
2017/08/21,17:50,0.930,1.459,0.962,1.735,1.191,0.516,0.932,0.862,��,6.4,��
2017/08/21,18:00,0.930,1.463,0.959,1.736,1.190,0.515,0.930,0.861,��,6.6,��
2017/08/21,18:10,0.929,1.460,0.962,1.736,1.192,0.516,0.931,0.863,��,6.0,��
2017/08/21,18:20,0.928,1.460,0.961,1.735,1.190,0.515,0.931,0.862,��,6.1,��
2017/08/21,18:30,0.925,1.461,0.963,1.737,1.191,0.516,0.931,0.860,��,6.0,��
2017/08/21,18:40,0.929,1.458,0.963,1.737,1.189,0.514,0.932,0.863,��,5.9,��
2017/08/21,18:50,0.928,1.460,0.960,1.733,1.190,0.513,0.934,0.860,��,5.5,��
2017/08/21,19:00,0.928,1.460,0.962,1.736,1.190,0.515,0.933,0.861,��,6.6,��
2017/08/21,19:10,0.927,1.460,0.961,1.735,1.192,0.517,0.932,0.862,��,6.3,��
2017/08/21,19:20,0.930,1.461,0.963,1.736,1.190,0.514,0.932,0.861,��,4.4,��
2017/08/21,19:30,0.931,1.458,0.961,1.736,1.191,0.514,0.930,0.861,��,5.7,��
2017/08/21,19:40,0.928,1.461,0.962,1.736,1.191,0.516,0.933,0.862,��,6.3,��
2017/08/21,19:50,0.930,1.462,0.960,1.736,1.186,0.515,0.932,0.860,��,6.3,��
2017/08/21,20:00,0.929,1.460,0.964,1.737,1.188,0.515,0.934,0.863,��,5.7,��
2017/08/21,20:10,0.929,1.461,0.963,1.736,1.190,0.514,0.932,0.861,��,6.1,��
2017/08/21,20:20,0.931,1.462,0.962,1.737,1.190,0.514,0.932,0.861,��,6.7,��
2017/08/21,20:30,0.930,1.460,0.965,1.733,1.190,0.513,0.933,0.862,��,7.2,��
2017/08/21,20:40,0.931,1.460,0.962,1.737,1.190,0.514,0.933,0.861,��,7.3,��
2017/08/21,20:50,0.930,1.460,0.961,1.737,1.188,0.514,0.933,0.862,��,6.9,��
2017/08/21,21:00,0.927,1.461,0.964,1.738,1.189,0.514,0.932,0.861,��,6.5,��
2017/08/21,21:10,0.930,1.460,0.962,1.739,1.192,0.513,0.932,0.861,��,6.5,��
2017/08/21,21:20,0.929,1.461,0.963,1.737,1.192,0.513,0.932,0.862,��,6.6,��
2017/08/21,21:30,0.927,1.459,0.961,1.738,1.189,0.514,0.932,0.862,��,7.1,��
2017/08/21,21:40,0.929,1.460,0.960,1.737,1.189,0.512,0.933,0.860,��,6.4,��
2017/08/21,21:50,0.930,1.460,0.961,1.737,1.189,0.512,0.932,0.863,��,5.7,��
2017/08/21,22:00,0.928,1.460,0.962,1.735,1.191,0.512,0.932,0.862,��,5.2,��
2017/08/21,22:10,0.929,1.458,0.965,1.739,1.191,0.513,0.932,0.862,��,5.7,��
2017/08/21,22:20,0.929,1.460,0.962,1.739,1.189,0.513,0.932,0.861,��,6.2,��
2017/08/21,22:30,0.928,1.461,0.963,1.739,1.191,0.513,0.933,0.860,��,6.0,��
2017/08/21,22:40,0.928,1.459,0.963,1.738,1.191,0.513,0.932,0.863,��,5.3,��
2017/08/21,22:50,0.932,1.460,0.961,1.737,1.192,0.512,0.931,0.862,��,5.8,��
2017/08/21,23:00,0.931,1.461,0.962,1.742,1.193,0.511,0.934,0.863,��,5.2,��
2017/08/21,23:10,0.932,1.459,0.964,1.737,1.190,0.513,0.932,0.863,��,5.1,��
2017/08/21,23:20,0.929,1.459,0.961,1.737,1.192,0.513,0.931,0.861,��,5.9,��
2017/08/21,23:30,0.930,1.459,0.962,1.738,1.191,0.512,0.932,0.861,��,6.4,��
2017/08/21,23:40,0.928,1.459,0.965,1.742,1.193,0.512,0.933,0.860,��,6.1,��
2017/08/21,23:50,0.930,1.461,0.964,1.740,1.189,0.513,0.932,0.862,��쐼,4.9,��
